Torna al catalogo

STARLINK-30426

AttivoComunicazioniVLEO
NORAD 57848·PAYLOAD·🇺🇸 United States

Lanciato Sep 12, 2023 da Vandenberg Space Force Base

Loading…

Prossimi Passaggi (prossime 24 ore)

TLE

AggiornatoSource: CelesTrak SupGP

Epoca: Sep 15, 2026, 02:55 UTC

1 57848C 23141J   26258.12201389  .00037811  00000+0  11173-2 0  2584
2 57848  53.1574 122.8980 0001271  84.0701  11.3768 15.34367445    19

Traccia STARLINK-30426 in tempo reale con AllMySat

Download on the App Store